Total_Precipitation_Accumulation
2.22 2.18 2.14 2.10 1.95 2.03 2.22 2.46 2.49 2.84 2.96 2.56 2.17 2.03 2.02 2.09 2.00 1.98 1.88 1.76 1.69 1.85 2.26 2.53 2.40 2.16 1.84 1.59 1.43 1.35 1.24 1.10 1.01 0.88 0.87 0.95 0.95 0.89 0.80 0.74 0.69 0.61 0.55
2.36 2.48 2.33 2.28 2.11 2.08 2.22 2.41 2.57 3.08 3.08 2.89 2.46 2.20 2.11 2.05 1.89 1.81 1.89 2.07 1.91 1.80 1.95 2.28 2.52 2.50 2.33 2.10 1.80 1.61 1.45 1.34 1.18 0.93 0.83 0.91 0.95 0.92 0.91 0.89 0.81 0.70 0.61
2.35 2.39 2.22 2.12 2.16 2.29 2.48 2.49 2.61 2.90 2.67 2.66 2.45 2.22 2.01 1.81 1.65 1.60 1.77 1.98 1.89 1.82 1.96 2.12 2.35 2.49 2.59 2.60 2.45 2.26 1.89 1.62 1.40 1.16 0.97 0.93 0.97 0.92 0.88 0.90 0.86 0.79 0.68
2.22 2.42 2.24 2.08 2.39 2.42 2.53 2.81 2.92 2.92 2.85 2.86 2.60 2.23 1.97 1.83 1.48 1.38 1.41 1.57 1.81 1.59 1.87 2.09 2.15 2.24 2.52 2.84 3.11 3.12 2.72 2.26 1.91 1.64 1.36 1.20 1.16 1.04 0.88 0.83 0.86 0.81 0.65
2.29 2.55 2.54 2.64 2.69 2.74 2.77 2.64 3.00 3.02 2.89 2.92 2.53 2.25 1.85 1.64 1.46 1.29 1.25 1.25 1.44 1.56 1.68 1.75 1.86 1.97 2.40 3.09 3.43 3.59 3.57 3.18 2.56 2.17 1.94 1.75 1.63 1.34 1.06 0.93 0.92 0.87 0.72
2.41 2.78 2.64 2.66 2.72 2.86 2.93 2.90 2.96 2.95 2.69 2.68 2.37 2.16 1.78 1.37 1.31 1.26 1.12 1.14 1.23 1.25 1.49 1.77 1.93 1.71 2.04 2.65 3.03 3.50 3.87 3.68 3.05 2.65 2.48 2.34 2.20 1.86 1.34 1.06 1.00 0.96 0.88
2.40 2.80 2.67 2.89 2.84 2.83 2.84 2.86 2.93 2.79 2.42 2.60 2.67 2.20 1.67 1.30 1.31 1.13 1.07 1.12 1.16 1.17 1.43 1.75 1.96 1.93 1.75 1.81 2.13 2.57 3.20 3.56 3.36 3.00 2.82 2.67 2.63 2.37 1.77 1.42 1.26 1.11 1.08
2.60 2.64 2.80 2.78 2.83 2.93 2.86 2.81 2.88 2.69 2.29 2.46 2.72 2.78 2.15 1.74 1.35 0.97 1.07 1.17 1.26 1.36 1.41 1.56 1.76 1.95 1.92 2.08 1.88 1.78 2.28 3.02 3.51 3.48 3.16 2.70 2.51 2.39 2.10 1.92 1.70 1.50 1.42
2.79 2.78 2.76 2.69 2.68 2.54 2.55 2.59 2.60 2.63 2.50 2.38 2.61 2.92 2.49 2.00 1.67 1.18 1.10 1.16 1.34 1.55 1.57 1.63 1.66 1.86 2.02 2.35 2.43 2.17 1.99 2.26 2.97 3.72 3.79 3.20 2.59 2.27 2.18 2.16 2.13 1.93 1.78
2.63 2.42 2.33 2.43 2.44 2.30 2.32 2.04 2.15 2.33 2.32 2.16 2.36 2.42 2.44 2.42 2.32 1.69 1.26 1.14 1.28 1.44 1.59 1.51 1.52 1.76 2.07 2.30 2.54 2.42 2.01 1.81 2.11 3.00 3.54 3.44 2.99 2.53 2.24 2.26 2.60 2.63 2.31
2.34 2.02 1.99 2.10 2.10 2.03 1.97 1.91 2.06 1.96 1.89 1.89 2.09 2.27 2.34 2.39 2.30 2.16 1.74 1.65 1.62 1.50 1.44 1.46 1.64 1.81 1.98 2.23 2.57 2.33 2.17 1.99 1.85 1.97 2.39 2.78 2.97 2.87 2.75 2.92 3.36 3.59 3.39
2.05 1.77 1.65 1.79 1.90 1.93 1.91 1.89 1.97 1.86 1.85 1.98 1.95 2.01 2.22 2.23 2.23 2.37 2.03 1.86 1.82 1.58 1.51 1.57 1.62 1.81 1.89 2.05 2.09 2.18 2.10 1.90 1.78 1.74 1.84 2.10 2.39 2.55 2.69 2.97 3.46 3.84 4.03
1.79 1.72 1.71 1.77 1.82 1.89 1.79 1.84 1.90 1.93 2.05 2.09 1.99 1.92 2.04 2.09 2.20 2.36 2.30 2.09 2.01 1.82 1.82 1.78 1.63 1.64 1.58 1.72 1.82 1.81 1.62 1.54 1.44 1.39 1.44 1.53 1.61 1.79 2.05 2.42 2.86 3.31 3.66
1.82 1.88 1.85 1.72 1.66 1.76 1.67 1.90 1.83 1.87 2.04 2.05 1.84 2.05 2.09 2.11 2.33 2.47 2.57 2.65 2.41 2.15 2.07 2.02 1.89 1.70 1.59 1.57 1.62 1.56 1.35 1.31 1.13 1.09 1.13 1.15 1.17 1.27 1.52 1.75 2.03 2.34 2.61
1.90 2.00 1.96 1.84 1.75 1.81 1.94 2.18 2.10 2.07 2.24 2.18 2.12 2.28 2.23 2.17 2.26 2.36 2.56 2.73 2.79 2.51 2.35 2.30 2.13 1.83 1.70 1.67 1.65 1.45 1.45 1.36 1.14 1.06 1.00 0.95 0.96 1.03 1.10 1.19 1.36 1.55 1.75
1.75 1.91 2.03 1.97 1.91 1.95 2.10 2.25 2.25 2.39 2.51 2.45 2.47 2.56 2.49 2.34 2.39 2.44 2.47 2.67 2.91 2.84 2.53 2.20 2.02 1.78 1.67 1.54 1.63 1.46 1.46 1.42 1.23 1.09 0.97 0.90 0.89 0.92 0.91 0.94 1.02 1.14 1.30
1.70 1.78 1.96 2.03 2.00 2.04 2.14 2.19 2.16 2.43 2.52 2.50 2.47 2.45 2.42 2.49 2.48 2.39 2.46 2.61 2.82 2.87 2.56 2.11 2.01 1.97 1.92 1.79 1.72 1.59 1.46 1.39 1.22 1.12 0.99 0.93 0.89 0.89 0.91 0.91 0.93 0.96 1.03
1.73 1.81 1.93 1.94 1.87 1.88 2.07 2.11 2.18 2.39 2.48 2.38 2.35 2.35 2.17 2.20 2.24 2.11 2.21 2.28 2.39 2.58 2.54 2.26 2.23 2.21 2.16 2.02 1.95 1.86 1.67 1.45 1.21 1.17 1.04 0.99 0.95 0.90 0.88 0.89 0.93 0.96 1.00
1.70 1.75 1.76 1.78 1.83 1.93 2.03 2.05 2.06 2.06 2.06 2.12 2.30 2.39 2.21 2.20 2.08 2.02 2.03 1.98 2.04 2.16 2.34 2.28 2.22 2.26 2.20 2.18 2.08 1.86 1.73 1.60 1.30 1.22 1.17 1.09 1.02 0.96 0.91 0.91 0.92 0.99 1.07
1.57 1.64 1.71 1.79 1.85 1.91 1.94 2.00 2.03 1.97 1.95 2.00 2.12 2.17 2.14 2.08 2.00 2.05 1.95 1.91 1.95 2.07 2.20 2.23 2.18 2.29 2.31 2.23 2.22 2.03 2.02 1.89 1.72 1.47 1.38 1.25 1.23 1.21 1.13 1.02 0.96 0.97 1.07
1.63 1.69 1.74 1.76 1.76 1.76 1.66 1.68 1.73 1.75 1.88 1.86 1.78 1.80 1.80 1.83 1.81 1.81 1.66 1.77 1.94 2.03 2.09 2.12 2.12 2.27 2.44 2.48 2.31 2.24 2.29 2.24 2.07 1.78 1.65 1.45 1.35 1.27 1.22 1.15 1.08 1.01 1.01
1.69 1.72 1.68 1.73 1.73 1.48 1.60 1.59 1.57 1.70 1.81 1.81 1.71 1.62 1.54 1.51 1.45 1.43 1.39 1.45 1.68 1.85 1.93 2.01 2.01 2.15 2.38 2.58 2.66 2.61 2.49 2.40 2.34 2.15 2.04 1.91 1.67 1.53 1.40 1.27 1.22 1.15 1.07
1.76 1.73 1.67 1.66 1.69 1.74 1.74 1.56 1.42 1.43 1.56 1.60 1.57 1.56 1.40 1.31 1.42 1.37 1.40 1.37 1.39 1.52 1.63 1.79 1.88 1.89 2.07 2.32 2.54 2.51 2.59 2.61 2.54 2.49 2.48 2.39 2.07 1.82 1.57 1.39 1.23 0.99 0.91
1.94 1.90 1.84 1.75 1.77 1.75 1.68 1.47 1.45 1.41 1.45 1.47 1.51 1.53 1.53 1.45 1.46 1.56 1.55 1.49 1.38 1.34 1.40 1.48 1.59 1.71 1.91 2.17 2.42 2.40 2.42 2.48 2.49 2.45 2.48 2.48 2.22 2.03 1.77 1.56 1.42 1.14 0.96
2.02 1.95 1.91 1.95 1.90 1.92 1.95 1.74 1.71 1.58 1.61 1.63 1.64 1.66 1.65 1.56 1.65 1.58 1.52 1.51 1.46 1.44 1.48 1.54 1.51 1.62 1.84 1.95 2.08 2.15 2.12 2.16 2.07 1.98 2.09 2.27 2.27 2.19 2.03 1.76 1.51 1.31 1.06
2.11 2.13 2.13 2.11 2.11 2.15 2.36 2.14 1.94 1.79 1.83 1.83 1.91 1.90 1.91 1.73 1.70 1.60 1.48 1.50 1.50 1.52 1.57 1.53 1.48 1.46 1.49 1.67 1.84 1.85 1.99 2.11 1.97 1.82 1.61 1.72 1.92 2.10 2.24 2.04 1.77 1.57 1.42